Location: Fours
(44.3167°N, 6.7000°E)
Time: 03:52:30
(UTC+00:00)

Cosmos 1782 - Pass Details

Date: 30 November 2020
Orbit: 537 x 551 km, 82.5° (Epoch: 24 January)

Event Time Altitude Azimuth Distance (km) Brightness Sun altitude
Rises 18:00:34 0° 208° (SSW) 2,683 6.9 -21.7°
Reaches altitude 10° 18:02:50 10° 218° (SW) 1,798 6.0 -22.1°
Maximum altitude 18:06:28 34° 284° (WNW) 904 4.4 -22.8°
Drops below altitude 10° 18:10:08 10° 351° (N) 1,820 5.5 -23.4°
Enters shadow 18:10:27 - 353° (N) 1,936 5.6 -23.5°
